This demonstration page uses our WeatherBlox Daily Observations layout. Learn more.

Left ArrowRight Arrow

38.20091, -84.87328

Hourly Observations for April 2, 2020

Temp ( °F °C ) Dew Point ( °F °C ) Humidity (%) Winds ( mph kmh ) Pressure ( in mb ) Visibility ( mi km ) Precip ( " mm )
12:53 am 00:53 Cloudy 41 5 37 2.8 86 86 Calm 30.10 1019 10 16 0.00 0.00
1:53 am 01:53 Cloudy 40 4.4 36 2.2 86 86 Calm 30.11 1020 10 16 0.00 0.00
2:53 am 02:53 Clear 38 3.3 34 1.1 86 86 Calm 30.11 1020 10 16 0.00 0.00
3:53 am 03:53 Clear 36 2.2 33 0.6 89 89 Calm 30.11 1020 10 16 0.00 0.00
4:53 am 04:53 Clear 34 1.1 32 0 92 92 Calm 30.11 1020 10 16 0.00 0.00
5:53 am 05:53 Clear 33 0.6 30 -1.1 89 89 Calm 30.12 1020 10 16 0.00 0.00
6:53 am 06:53 Clear 32 0 30 -1.1 92 92 Calm 30.14 1021 10 16 0.00 0.00
7:53 am 07:53 Sunny 34 1.1 31 -0.6 89 89 Calm 30.16 1021 10 16 0.00 0.00
8:53 am 08:53 Sunny 42 5.6 37 2.8 82 82 Calm 30.19 1022 10 16 0.00 0.00
9:53 am 09:53 Sunny 50 10 39 3.9 66 66 N 3 6 30.18 1022 10 16 0.00 0.00
10:53 am 10:53 Sunny 54 12.2 39 3.9 57 57 N 6 9 30.19 1022 10 16 0.00 0.00
11:53 am 11:53 Cloudy 54 12.2 38 3.3 55 55 WSW 3 6 30.19 1022 10 16 0.00 0.00
12:53 pm 12:53 Cloudy 55 12.8 36 2.2 49 49 NNW 5 7 30.17 1022 10 16 0.00 0.00
1:53 pm 13:53 Partly Cloudy 60 15.6 36 2.2 41 41 N 6 9 30.14 1021 10 16 0.00 0.00
2:53 pm 14:53 Partly Cloudy 61 16.1 38 3.3 43 43 VRB 3 6 30.11 1020 10 16 0.00 0.00
3:53 pm 15:53 Mostly Sunny 61 16.1 37 2.8 41 41 undefined N/A 30.09 1019 10 16 0.00 0.00
4:53 pm 16:53 Sunny 63 17.2 39 3.9 41 41 Calm 30.08 1019 10 16 0.00 0.00
5:53 pm 17:53 Sunny 63 17.2 39 3.9 41 41 VRB 5 7 30.07 1018 10 16 0.00 0.00
9:53 pm 21:53 Clear 46 7.8 37 2.8 71 71 Calm 30.09 1019 10 16 0.00 0.00
10:53 pm 22:53 Clear 44 6.7 37 2.8 76 76 Calm 30.09 1019 10 16 0.00 0.00
11:53 pm 23:53 Clear 43 6.1 36 2.2 76 76 Calm 30.09 1019 10 16 0.00 0.00

Powered by AerisWeather